TimePDT,TemperatureF,Dew PointF,Humidity,Sea Level PressureIn,VisibilityMPH,Wind Direction,Wind SpeedMPH,Gust SpeedMPH,PrecipitationIn,Events,Conditions,WindDirDegrees,DateUTC
12:55 AM,52.0,48.0,86,30.00,7.0,Calm,Calm,-,N/A,,Clear,0,2012-11-03 07:55:00
1:55 AM,54.0,50.0,86,30.01,6.0,Calm,Calm,-,N/A,,Clear,0,2012-11-03 08:55:00
2:55 AM,53.1,48.9,86,30.01,7.0,Calm,Calm,-,N/A,,Clear,0,2012-11-03 09:55:00
3:55 AM,51.1,46.9,86,30.01,6.0,Calm,Calm,-,N/A,,Clear,0,2012-11-03 10:55:00
4:55 AM,51.1,46.9,86,30.01,8.0,Calm,Calm,-,N/A,,Clear,0,2012-11-03 11:55:00
5:55 AM,52.0,46.9,83,30.03,8.0,ENE,4.6,-,N/A,,Clear,60,2012-11-03 12:55:00
6:55 AM,48.9,46.0,90,30.04,7.0,Calm,Calm,-,N/A,,Clear,0,2012-11-03 13:55:00
8:55 AM,57.9,50.0,75,30.06,6.0,Calm,Calm,-,N/A,,Haze,0,2012-11-03 15:55:00
9:55 AM,62.1,51.1,67,30.08,6.0,West,3.5,-,N/A,,Haze,260,2012-11-03 16:55:00
10:55 AM,66.0,55.9,70,30.08,9.0,West,4.6,-,N/A,,Clear,260,2012-11-03 17:55:00
11:55 AM,70.0,54.0,57,30.07,10.0,WSW,3.5,-,N/A,,Clear,240,2012-11-03 18:55:00
12:55 PM,71.1,57.0,61,30.04,10.0,SSW,5.8,-,N/A,,Clear,210,2012-11-03 19:55:00
1:55 PM,72.0,55.9,57,30.02,10.0,WSW,6.9,-,N/A,,Clear,240,2012-11-03 20:55:00
2:55 PM,73.0,54.0,51,30.02,10.0,West,8.1,-,N/A,,Clear,260,2012-11-03 21:55:00
3:55 PM,72.0,55.0,55,30.02,10.0,WSW,6.9,-,N/A,,Clear,240,2012-11-03 22:55:00
4:55 PM,70.0,55.9,61,30.02,10.0,WSW,5.8,-,N/A,,Clear,250,2012-11-03 23:55:00
5:55 PM,66.0,57.0,73,30.03,9.0,West,5.8,-,N/A,,Clear,260,2012-11-04 00:55:00
6:55 PM,63.0,55.0,75,30.05,9.0,WNW,3.5,-,N/A,,Clear,290,2012-11-04 01:55:00
7:55 PM,60.1,54.0,80,30.05,8.0,Calm,Calm,-,N/A,,Clear,0,2012-11-04 02:55:00
8:55 PM,60.1,54.0,80,30.06,6.0,Calm,Calm,-,N/A,,Haze,0,2012-11-04 03:55:00
9:55 PM,57.9,52.0,81,30.06,8.0,Calm,Calm,-,N/A,,Clear,0,2012-11-04 04:55:00
10:55 PM,55.9,51.1,84,30.06,8.0,Calm,Calm,-,N/A,,Clear,0,2012-11-04 05:55:00
11:55 PM,55.0,50.0,83,30.05,9.0,Calm,Calm,-,N/A,,Clear,0,2012-11-04 06:55:00